AirNav   Everest Fuels
 
 1212 users online  

0TX6 Elm Creek Airpark
Seguin, Texas, USA

GOING TO SEGUIN?


FAA INFORMATION EFFECTIVE 07 NOVEMBER 2019

Location

FAA Identifier: 0TX6
Lat/Long: 29-30-18.1500N 097-59-49.7250W
29-30.302500N 097-59.828750W
29.5050417,-97.9971458
(estimated)
Elevation: 550 ft. / 168 m (estimated)
Variation: 07E (1985)
From city: 4 miles SSW of SEGUIN, TX
Time zone: UTC -6 (UTC -5 during Daylight Saving Time)
Zip code: 78155

Airport Operations

Airport use: Private use. Permission required prior to landing
Activation date: 11/1989
Control tower: no
ARTCC: HOUSTON CENTER
FSS: SAN ANGELO FLIGHT SERVICE STATION
Attendance: UNATNDD
Wind indicator: yes
Segmented circle: no

Airport Communications

WX ASOS at BAZ (12 nm N): 119.325 (830-629-7979)

Nearby radio navigation aids

VOR radial/distance  VOR name  Freq  Var
RNDr088/15.1RANDOLPH VORTAC112.3005E
SATr101/25.6SAN ANTONIO VORTAC116.8008E
SSFr049/(27.6)STINSON VOR108.4009E

Airport Services

Runway Information

Runway 14/32

Dimensions: 1925 x 75 ft. / 587 x 23 m
Surface: turf
Runway edge markings: RY 14/32 OUTLINED WITH CONC DISKS.
RUNWAY 14  RUNWAY 32
Latitude: 29-30.445000N29-30.160000N
Longitude: 097-59.909167W097-59.748333W
Elevation: 550.0 ft.550.0 ft.
Traffic pattern: leftright
Displaced threshold: no50 ft.
Obstructions: 20 ft. pline, marked, 500 ft. from runwaytrees

Airport Ownership and Management from official FAA records

Ownership: Privately-owned
Owner: ELM CREEK HOMEOWNERS ASSN INC
100 TAILWIND DRIVE
SEGUIN, TX 78155-0791
Phone 830-303-3640
Manager: JACK MERRELL
100 TAILWIND DRIVE
SEGUIN, TX 78155-0791
Phone 830-303-3640

Airport Operational Statistics

Aircraft based on the field: 20
Single engine airplanes: 20
    

Additional Remarks

FOR CD CTC SAN ANTONIO APCH AT 210-805-5516.

Instrument Procedures

There are no published instrument procedures at 0TX6.

Some nearby airports with instrument procedures:

KBAZ - New Braunfels Regional Airport (12 nm N)
KRND - Randolph Air Force Base (15 nm W)
KHYI - San Marcos Regional Airport (24 nm N)
KSAT - San Antonio International Airport (25 nm W)
KSSF - Stinson Municipal Airport (27 nm W)
 
Loc | Ops | Rwys | IFR | FBO | Links
Com | Nav | Svcs | Stats | Notes
Area around 0TX6 (Elm Creek Airpark)
 
Road maps at: MapQuest Bing Google
 
Aerial photo
WARNING: Photo may not be current or correct
Aerial photo of 0TX6 (Elm Creek Airpark)
Do you have a better or more recent aerial photo of Elm Creek Airpark that you would like to share? If so, please send us your photo.

 
Sectional chart

 
Airport distance calculator
Flying to Elm Creek Airpark? Find the distance to fly.

From to 0TX6

Sunrise and sunset
Times for 20-Nov-2019
 Local
(UTC-6)
 Zulu
(UTC)
Morning civil twilight06:3612:36
Sunrise07:0113:01
Sunset17:3423:34
Evening civil twilight17:5923:59

Current date and time
Zulu (UTC)  21-Nov-2019 02:09:16
Local (UTC-6)  20-Nov-2019 20:09:16
 
METAR
KSEQ 
6nm NE 
210158Z AUTO 16012KT 10SM SCT210 22/18 A2997 RMK AO2 SLP146 T02150183
KBAZ 
13nm N 
210151Z AUTO 16017KT 10SM CLR 23/18 A2992 RMK AO2 PK WND 14026/0107 SLP124 T02280183
KRND 
14nm W 
210156Z AUTO 15010KT 10SM BKN190 BKN210 22/19 A2993 RMK AO2 SLP130 T02170185 $
TAF
KRND 
14nm W 
201800Z 2018/2124 16020G25KT 9999 FEW030 QNH2990INS BECMG 2019/2020 16020G30KT 9999 BKN030 510003 QNH2985INS BECMG 2022/2023 15015G20KT 9999 BKN030 510003 QNH2985INS BECMG 2100/2101 16009KT 9999 BKN030 QNH2986INS BECMG 2104/2105 16009KT 6000 BR BKN010 QNH2995INS BECMG 2115/2116 16909KT 6000 -SHRA BKN010 QNH2998INS BECMG 2118/2119 16012KT 9999 NSW BKN030 QNH3000INS TX27/2020Z TN14/2113Z LAST NO AMDS AFT 2101 NEXT 2110
NOTAMs
Click for the latest NOTAMs
NOTAMs are issued by the DoD/FAA and will open in a separate window not controlled by AirNav.

 

 
 

Would you like to see your business listed on this page?

 If your business provides an interesting product or service to pilots, flight crews, aircraft, or users of the Elm Creek Airpark, you should consider listing it here.  To start the listing process, click on the button below
 
Add a business
 

Other Pages about Elm Creek Airpark

elmcreekap.org
 
Update a link
 
Copyright © AirNav, LLC. All rights reserved. Privacy Policy  Contact